Wheeling, WV

4:01 PM EST on December 08, 2019 (GMT -0500)
Wheeling-Ohio County

Weather History for KHLG - October, 2019

Change the Weather History Date:

Wednesday, October 9, 2019

  Actual Average Record
Temperature  
Mean Temperature 57 °F 56 °F  
Max Temperature 69 °F 65 °F 91 °F (1939)
Min Temperature 45 °F 46 °F 28 °F (1935)
Degree Days  
Heating Degree Days 8 10  
Month to date heating degree days 43 78  
Since 1 July heating degree days 44 179  
Cooling Degree Days 0 1  
Month to date cooling degree days 40 9  
Year to date cooling degree days 986 687  
Growing Degree Days 7 (Base 50)    
Moisture  
Dew Point 46 °F    
Average Humidity 68    
Maximum Humidity 90    
Minimum Humidity 45    
Precipitation  
Precipitation 0.00 in 0.08 in 0.81 in (1950)
Month to date precipitation 1.60 0.75  
Year to date precipitation 29.58 30.52  
Sea Level Pressure  
Sea Level Pressure 30.21 in    
Wind  
Wind Speed 7 mph (ENE)    
Max Wind Speed 13 mph    
Max Gust Speed 16 mph    
Visibility 10 miles    
Events      
T = Trace of Precipitation, MM = Missing Value Source: NWS Daily Summary

Daily Weather History Graph

Daily Weather History Graph

Search for Another Location

Airport or City:

Astronomy

Oct. 09, 2019 Rise Set
Actual Time 7:26 AM EDT 6:52 PM EDT
Civil Twilight 6:59 AM EDT 7:19 PM EDT
Nautical Twilight 6:28 AM EDT 7:50 PM EDT
Astronomical Twilight 5:56 AM EDT 8:22 PM EDT
Moon 5:23 PM EDT (10/9) 3:11 AM EDT (10/9)
Length of Visible Light 12h 19m
Length of Day
11h 25m
Waxing Gibbous, 85% of the Moon is Illuminated
Oct 9
Waxing Gibbous
Oct 13
Full
Oct 21
Last Quarter
Oct 27
New
Nov 4
First Quarter

Hourly Weather History & Observations

Time (EDT) Temp. Windchill Dew Point Humidity Pressure Visibility Wind Dir Wind Speed Gust Speed Precip Events Conditions
12:53 AM 53.1 °F - 43.0 °F 69% 30.21 in 10.0 mi ENE 3.5 mph - N/A   Clear
1:53 AM 51.1 °F - 43.0 °F 74% 30.21 in 10.0 mi ENE 8.1 mph - N/A   Clear
2:53 AM 48.9 °F - 43.0 °F 80% 30.21 in 10.0 mi NNE 3.5 mph - N/A   Clear
3:53 AM 51.1 °F - 43.0 °F 74% 30.19 in 10.0 mi East 9.2 mph - N/A   Clear
4:53 AM 48.9 °F - 43.0 °F 80% 30.21 in 10.0 mi ENE 8.1 mph - N/A   Clear
5:53 AM 48.0 °F - 43.0 °F 83% 30.22 in 10.0 mi NE 5.8 mph - N/A   Clear
6:53 AM 46.0 °F 44.8 °F 42.1 °F 86% 30.24 in 10.0 mi NNE 3.5 mph - N/A   Clear
7:53 AM 45.0 °F 42.6 °F 42.1 °F 90% 30.24 in 10.0 mi ENE 4.6 mph - N/A   Clear
8:53 AM 48.9 °F - 45.0 °F 86% 30.25 in 10.0 mi ENE 5.8 mph - N/A   Clear
9:53 AM 54.0 °F - 45.0 °F 72% 30.26 in 10.0 mi East 6.9 mph - N/A   Clear
10:53 AM 59.0 °F - 46.9 °F 64% 30.26 in 10.0 mi ENE 5.8 mph - N/A   Clear
11:53 AM 62.1 °F - 48.0 °F 60% 30.25 in 10.0 mi Variable 4.6 mph - N/A   Clear
12:53 PM 64.9 °F - 48.0 °F 54% 30.23 in 10.0 mi ENE 9.2 mph - N/A   Clear
1:53 PM 66.9 °F - 48.0 °F 51% 30.20 in 10.0 mi Variable 6.9 mph - N/A   Clear
2:53 PM 68.0 °F - 46.9 °F 47% 30.18 in 10.0 mi ENE 4.6 mph - N/A   Clear
3:53 PM 69.1 °F - 48.0 °F 47% 30.17 in 10.0 mi ESE 6.9 mph - N/A   Clear
4:53 PM 69.1 °F - 46.9 °F 45% 30.17 in 10.0 mi ENE 6.9 mph - N/A   Clear
5:53 PM 68.0 °F - 48.0 °F 49% 30.17 in 10.0 mi NE 6.9 mph - N/A   Clear
6:53 PM 63.0 °F - 46.9 °F 56% 30.18 in 10.0 mi NE 8.1 mph - N/A   Clear
7:53 PM 61.0 °F - 46.0 °F 58% 30.19 in 10.0 mi NE 6.9 mph - N/A   Clear
8:53 PM 60.1 °F - 46.9 °F 62% 30.20 in 10.0 mi NE 8.1 mph - N/A   Clear
9:53 PM 57.9 °F - 46.9 °F 67% 30.20 in 10.0 mi NE 8.1 mph - N/A   Clear
10:53 PM 57.0 °F - 46.0 °F 67% 30.21 in 10.0 mi East 8.1 mph - N/A   Clear
11:53 PM 54.0 °F - 46.9 °F 77% 30.21 in 10.0 mi East 6.9 mph - N/A   Clear